Time,TemperatureF,DewpointF,PressureIn,WindDirection,WindDirectionDegrees,WindSpeedMPH,WindSpeedGustMPH,Humidity,HourlyPrecipIn,Conditions,Clouds,dailyrainin,SoftwareType,DateUTC
2013-01-09 00:11:00,26.1,25.0,30.38,ESE,106,0.0,0.0,95,0.00,,,0.00,weatherlink.com 1.10,2013-01-09 05:11:00,
2013-01-09 00:26:00,26.3,25.0,30.38,ESE,106,0.0,0.0,95,0.00,,,0.00,weatherlink.com 1.10,2013-01-09 05:26:00,
2013-01-09 00:41:00,26.3,25.0,30.37,ESE,105,0.0,0.0,95,0.00,,,0.00,weatherlink.com 1.10,2013-01-09 05:41:00,
2013-01-09 00:56:00,25.9,25.0,30.37,ESE,106,0.0,0.0,95,0.00,,,0.00,weatherlink.com 1.10,2013-01-09 05:56:00,
2013-01-09 01:11:00,25.8,25.0,30.37,ESE,105,0.0,0.0,95,0.00,,,0.00,weatherlink.com 1.10,2013-01-09 06:11:00,
2013-01-09 01:26:00,26.0,25.0,30.38,ESE,105,0.0,0.0,95,0.00,,,0.00,weatherlink.com 1.10,2013-01-09 06:26:00,
2013-01-09 01:41:00,26.2,25.0,30.37,ESE,105,0.0,0.0,95,0.00,,,0.00,weatherlink.com 1.10,2013-01-09 06:41:00,
2013-01-09 01:56:00,26.2,25.0,30.37,ESE,105,0.0,0.0,95,0.00,,,0.00,weatherlink.com 1.10,2013-01-09 06:56:00,
2013-01-09 02:11:00,26.2,25.0,30.37,ESE,105,0.0,0.0,95,0.00,,,0.00,weatherlink.com 1.10,2013-01-09 07:11:00,
2013-01-09 02:26:00,26.3,25.0,30.37,ESE,105,0.0,0.0,95,0.00,,,0.00,weatherlink.com 1.10,2013-01-09 07:26:00,
2013-01-09 02:41:00,26.6,26.0,30.36,ESE,105,0.0,0.0,96,0.00,,,0.00,weatherlink.com 1.10,2013-01-09 07:41:00,
2013-01-09 02:56:00,26.9,26.0,30.36,ESE,106,0.0,0.0,95,0.00,,,0.00,weatherlink.com 1.10,2013-01-09 07:56:00,
2013-01-09 03:11:00,27.1,26.0,30.35,ESE,105,0.0,0.0,95,0.00,,,0.00,weatherlink.com 1.10,2013-01-09 08:11:00,
2013-01-09 03:26:00,27.0,26.0,30.36,ESE,105,0.0,0.0,95,0.00,,,0.00,weatherlink.com 1.10,2013-01-09 08:26:00,
2013-01-09 03:41:00,26.9,26.0,30.36,ESE,106,0.0,0.0,95,0.00,,,0.00,weatherlink.com 1.10,2013-01-09 08:41:00,
2013-01-09 03:56:00,26.5,25.0,30.35,ESE,106,0.0,0.0,94,0.00,,,0.00,weatherlink.com 1.10,2013-01-09 08:56:00,
2013-01-09 04:11:00,26.0,25.0,30.35,ESE,105,0.0,0.0,94,0.00,,,0.00,weatherlink.com 1.10,2013-01-09 09:11:00,
2013-01-09 04:26:00,25.6,24.0,30.35,ESE,105,0.0,0.0,95,0.00,,,0.00,weatherlink.com 1.10,2013-01-09 09:26:00,
2013-01-09 04:41:00,25.2,24.0,30.34,ESE,105,0.0,0.0,94,0.00,,,0.00,weatherlink.com 1.10,2013-01-09 09:41:00,
2013-01-09 04:56:00,24.6,23.0,30.35,ESE,105,0.0,0.0,94,0.00,,,0.00,weatherlink.com 1.10,2013-01-09 09:56:00,
2013-01-09 05:11:00,24.6,23.0,30.35,ESE,106,0.0,0.0,95,0.00,,,0.00,weatherlink.com 1.10,2013-01-09 10:11:00,
2013-01-09 05:27:00,24.2,23.0,30.35,ESE,105,0.0,0.0,95,0.00,,,0.00,weatherlink.com 1.10,2013-01-09 10:27:00,
2013-01-09 05:41:00,24.2,23.0,30.35,ESE,105,0.0,0.0,95,0.00,,,0.00,weatherlink.com 1.10,2013-01-09 10:41:00,
2013-01-09 05:56:00,24.0,23.0,30.34,ESE,105,0.0,0.0,95,0.00,,,0.00,weatherlink.com 1.10,2013-01-09 10:56:00,
2013-01-09 06:11:00,23.8,23.0,30.35,ESE,106,0.0,0.0,95,0.00,,,0.00,weatherlink.com 1.10,2013-01-09 11:11:00,
2013-01-09 06:26:00,23.3,22.0,30.36,ESE,105,0.0,0.0,95,0.00,,,0.00,weatherlink.com 1.10,2013-01-09 11:26:00,
2013-01-09 06:41:00,23.5,23.0,30.36,ESE,106,0.0,0.0,96,0.00,,,0.00,weatherlink.com 1.10,2013-01-09 11:41:00,
2013-01-09 06:56:00,23.6,23.0,30.35,ESE,105,0.0,0.0,96,0.00,,,0.00,weatherlink.com 1.10,2013-01-09 11:56:00,
2013-01-09 07:11:00,23.5,23.0,30.36,ESE,105,0.0,0.0,96,0.00,,,0.00,weatherlink.com 1.10,2013-01-09 12:11:00,
2013-01-09 07:26:00,23.3,22.0,30.35,ESE,106,0.0,0.0,96,0.00,,,0.00,weatherlink.com 1.10,2013-01-09 12:26:00,
2013-01-09 07:41:00,23.5,23.0,30.35,ESE,106,0.0,0.0,96,0.00,,,0.00,weatherlink.com 1.10,2013-01-09 12:41:00,
2013-01-09 07:56:00,23.9,23.0,30.36,ESE,105,0.0,0.0,96,0.00,,,0.00,weatherlink.com 1.10,2013-01-09 12:56:00,
2013-01-09 08:11:00,24.3,23.0,30.36,ESE,105,0.0,0.0,96,0.00,,,0.00,weatherlink.com 1.10,2013-01-09 13:11:00,
2013-01-09 08:26:00,25.0,24.0,30.36,ESE,105,0.0,0.0,96,0.00,,,0.00,weatherlink.com 1.10,2013-01-09 13:26:00,
2013-01-09 08:41:00,25.8,25.0,30.36,ESE,106,0.0,0.0,96,0.00,,,0.00,weatherlink.com 1.10,2013-01-09 13:41:00,
2013-01-09 08:56:00,26.6,26.0,30.37,ESE,104,0.0,0.0,96,0.00,,,0.00,weatherlink.com 1.10,2013-01-09 13:56:00,
2013-01-09 09:11:00,27.4,26.0,30.37,ESE,105,0.0,1.0,95,0.00,,,0.00,weatherlink.com 1.10,2013-01-09 14:11:00,
2013-01-09 09:26:00,28.4,27.0,30.36,ESE,106,0.0,0.0,95,0.00,,,0.00,weatherlink.com 1.10,2013-01-09 14:26:00,
2013-01-09 09:41:00,29.2,28.0,30.34,SE,125,0.0,0.0,94,0.00,,,0.00,weatherlink.com 1.10,2013-01-09 14:41:00,
2013-01-09 09:56:00,30.4,29.0,30.32,SSW,211,0.0,0.0,94,0.00,,,0.00,weatherlink.com 1.10,2013-01-09 14:56:00,
2013-01-09 10:11:00,31.3,29.0,30.33,West,280,0.0,1.0,92,0.00,,,0.00,weatherlink.com 1.10,2013-01-09 15:11:00,
2013-01-09 10:26:00,32.7,30.0,30.34,West,277,0.0,1.0,91,0.00,,,0.00,weatherlink.com 1.10,2013-01-09 15:26:00,
2013-01-09 10:42:00,34.3,31.0,30.33,West,273,0.0,0.0,89,0.00,,,0.00,weatherlink.com 1.10,2013-01-09 15:42:00,
2013-01-09 10:57:00,36.5,33.0,30.32,West,276,0.0,2.0,86,0.00,,,0.00,weatherlink.com 1.10,2013-01-09 15:57:00,
2013-01-09 11:12:00,38.8,34.0,30.31,West,269,0.0,1.0,84,0.00,,,0.00,weatherlink.com 1.10,2013-01-09 16:12:00,
2013-01-09 11:27:00,42.5,37.0,30.30,SSE,153,0.0,0.0,80,0.00,,,0.00,weatherlink.com 1.10,2013-01-09 16:27:00,
2013-01-09 11:42:00,43.9,36.0,30.27,West,278,0.0,1.0,75,0.00,,,0.00,weatherlink.com 1.10,2013-01-09 16:42:00,
2013-01-09 11:57:00,44.8,38.0,30.27,West,274,0.0,1.0,76,0.00,,,0.00,weatherlink.com 1.10,2013-01-09 16:57:00,
2013-01-09 12:12:00,46.0,39.0,30.26,South,169,2.0,2.0,75,0.00,,,0.00,weatherlink.com 1.10,2013-01-09 17:12:00,
2013-01-09 12:27:00,46.5,38.0,30.25,ENE,75,0.0,1.0,73,0.00,,,0.00,weatherlink.com 1.10,2013-01-09 17:27:00,
2013-01-09 12:42:00,46.3,38.0,30.27,NNW,335,1.0,3.0,74,0.00,,,0.00,weatherlink.com 1.10,2013-01-09 17:42:00,
2013-01-09 12:57:00,46.0,39.0,30.27,SW,222,2.0,4.0,75,0.00,,,0.00,weatherlink.com 1.10,2013-01-09 17:57:00,
2013-01-09 13:12:00,46.3,39.0,30.26,WNW,293,0.0,2.0,77,0.00,,,0.00,weatherlink.com 1.10,2013-01-09 18:12:00,
2013-01-09 13:27:00,47.3,40.0,30.26,West,277,0.0,4.0,75,0.00,,,0.00,weatherlink.com 1.10,2013-01-09 18:27:00,
2013-01-09 13:42:00,48.1,39.0,30.23,ESE,117,0.0,3.0,72,0.00,,,0.00,weatherlink.com 1.10,2013-01-09 18:42:00,
2013-01-09 13:57:00,48.1,40.0,30.22,West,277,0.0,5.0,73,0.00,,,0.00,weatherlink.com 1.10,2013-01-09 18:57:00,
2013-01-09 14:12:00,48.3,40.0,30.19,East,96,0.0,1.0,72,0.00,,,0.00,weatherlink.com 1.10,2013-01-09 19:12:00,
2013-01-09 14:27:00,47.9,40.0,30.19,SE,127,0.0,4.0,73,0.00,,,0.00,weatherlink.com 1.10,2013-01-09 19:27:00,
2013-01-09 14:57:00,47.4,39.0,30.17,ENE,68,0.0,3.0,72,0.00,,,0.00,weatherlink.com 1.10,2013-01-09 19:57:00,
2013-01-09 15:12:00,47.1,39.0,30.15,East,81,0.0,1.0,74,0.00,,,0.00,weatherlink.com 1.10,2013-01-09 20:12:00,
2013-01-09 15:27:00,47.0,39.0,30.16,NE,48,0.0,1.0,73,0.00,,,0.00,weatherlink.com 1.10,2013-01-09 20:27:00,
2013-01-09 15:42:00,47.1,39.0,30.16,WSW,255,0.0,4.0,74,0.00,,,0.00,weatherlink.com 1.10,2013-01-09 20:42:00,
2013-01-09 15:57:00,47.1,39.0,30.16,WNW,293,1.0,1.0,74,0.00,,,0.00,weatherlink.com 1.10,2013-01-09 20:57:00,
2013-01-09 16:12:00,47.4,39.0,30.16,NNW,327,1.0,1.0,73,0.00,,,0.00,weatherlink.com 1.10,2013-01-09 21:12:00,
2013-01-09 16:27:00,47.3,39.0,30.16,SSE,163,0.0,3.0,74,0.00,,,0.00,weatherlink.com 1.10,2013-01-09 21:27:00,
2013-01-09 16:42:00,47.2,39.0,30.17,West,267,0.0,8.0,74,0.00,,,0.00,weatherlink.com 1.10,2013-01-09 21:42:00,
2013-01-09 16:57:00,46.8,39.0,30.17,WNW,298,2.0,3.0,75,0.00,,,0.00,weatherlink.com 1.10,2013-01-09 21:57:00,
2013-01-09 17:12:00,46.5,39.0,30.19,WNW,285,2.0,2.0,76,0.00,,,0.00,weatherlink.com 1.10,2013-01-09 22:12:00,
2013-01-09 17:27:00,46.5,39.0,30.19,West,269,0.0,2.0,76,0.00,,,0.00,weatherlink.com 1.10,2013-01-09 22:27:00,
2013-01-09 17:42:00,46.3,39.0,30.20,WNW,291,0.0,2.0,77,0.00,,,0.00,weatherlink.com 1.10,2013-01-09 22:42:00,
2013-01-09 17:57:00,46.0,39.0,30.19,ENE,77,0.0,1.0,77,0.00,,,0.00,weatherlink.com 1.10,2013-01-09 22:57:00,
2013-01-09 18:12:00,45.0,39.0,30.19,ENE,76,0.0,0.0,78,0.00,,,0.00,weatherlink.com 1.10,2013-01-09 23:12:00,
2013-01-09 18:27:00,43.7,38.0,30.21,ENE,77,0.0,0.0,79,0.00,,,0.00,weatherlink.com 1.10,2013-01-09 23:27:00,
2013-01-09 18:42:00,42.4,37.0,30.22,East,80,0.0,1.0,82,0.00,,,0.00,weatherlink.com 1.10,2013-01-09 23:42:00,
2013-01-09 18:57:00,41.4,37.0,30.22,East,93,0.0,1.0,85,0.00,,,0.00,weatherlink.com 1.10,2013-01-09 23:57:00,
2013-01-09 19:12:00,40.7,36.0,30.22,East,94,0.0,1.0,84,0.00,,,0.00,weatherlink.com 1.10,2013-01-10 00:12:00,
2013-01-09 19:27:00,40.4,37.0,30.23,East,94,0.0,0.0,86,0.00,,,0.00,weatherlink.com 1.10,2013-01-10 00:27:00,
2013-01-09 19:42:00,38.9,35.0,30.24,East,94,0.0,0.0,87,0.00,,,0.00,weatherlink.com 1.10,2013-01-10 00:42:00,
2013-01-09 19:57:00,38.3,35.0,30.24,NNW,343,0.0,0.0,89,0.00,,,0.00,weatherlink.com 1.10,2013-01-10 00:57:00,
2013-01-09 20:12:00,36.9,34.0,30.24,NE,39,0.0,0.0,89,0.00,,,0.00,weatherlink.com 1.10,2013-01-10 01:12:00,
2013-01-09 20:27:00,35.6,33.0,30.24,NE,39,0.0,0.0,90,0.00,,,0.00,weatherlink.com 1.10,2013-01-10 01:27:00,
2013-01-09 20:43:00,34.9,33.0,30.24,NNW,338,0.0,1.0,91,0.00,,,0.00,weatherlink.com 1.10,2013-01-10 01:43:00,
2013-01-09 20:58:00,34.1,32.0,30.25,East,101,0.0,1.0,92,0.00,,,0.00,weatherlink.com 1.10,2013-01-10 01:58:00,
2013-01-09 21:13:00,33.4,32.0,30.25,East,101,0.0,1.0,93,0.00,,,0.00,weatherlink.com 1.10,2013-01-10 02:13:00,
2013-01-09 21:28:00,32.6,31.0,30.25,WNW,286,0.0,0.0,93,0.00,,,0.00,weatherlink.com 1.10,2013-01-10 02:28:00,
2013-01-09 21:43:00,32.1,31.0,30.25,WNW,286,0.0,0.0,94,0.00,,,0.00,weatherlink.com 1.10,2013-01-10 02:43:00,
2013-01-09 21:58:00,31.7,31.0,30.25,WNW,286,0.0,0.0,95,0.00,,,0.00,weatherlink.com 1.10,2013-01-10 02:58:00,
2013-01-09 22:13:00,31.3,30.0,30.25,WNW,286,0.0,0.0,95,0.00,,,0.00,weatherlink.com 1.10,2013-01-10 03:13:00,
2013-01-09 22:28:00,31.1,30.0,30.26,ESE,108,0.0,0.0,95,0.00,,,0.00,weatherlink.com 1.10,2013-01-10 03:28:00,
2013-01-09 22:43:00,30.7,30.0,30.26,ESE,105,0.0,0.0,95,0.00,,,0.00,weatherlink.com 1.10,2013-01-10 03:43:00,
2013-01-09 22:58:00,32.1,31.0,30.27,ESE,106,0.0,0.0,97,0.00,,,0.00,weatherlink.com 1.10,2013-01-10 03:58:00,
2013-01-09 23:13:00,33.5,33.0,30.27,WNW,290,0.0,1.0,97,0.00,,,0.00,weatherlink.com 1.10,2013-01-10 04:13:00,
2013-01-09 23:28:00,34.9,34.0,30.27,WNW,295,0.0,3.0,97,0.00,,,0.00,weatherlink.com 1.10,2013-01-10 04:28:00,
2013-01-09 23:43:00,36.5,35.0,30.28,West,278,0.0,1.0,94,0.00,,,0.00,weatherlink.com 1.10,2013-01-10 04:43:00,
2013-01-09 23:58:00,39.3,35.0,30.28,WNW,291,1.0,2.0,85,0.00,,,0.00,weatherlink.com 1.10,2013-01-10 04:58:00,